CZ-4 DEB, 26162

Orbit data source: Space-Track

CZ-4 DEB, 26162 is space debris in SSO originally from a launch on Thu, 14 Oct 1999 UTC launched from the Taiyaun Space Center, China (TSC). Debris objects in space refer to the collection of defunct objects orbiting the Earth. Examples of debris include non-operational satellites, rocket bodies, and fragments generated from explosions, collisions, or faulty payload assembly.

Loading next visibility...
Identifier
26162, 1999-057AY
Orbit
SSO
Country
Flag of CNCN / PRC
Related business
Manufacturer
Unknown
Mission
Spacecraft
Bus & Motor
Unknown
Mass
Unknown
Launch date (UTC)
1999-10-14 (26 years ago)
Launch vehicle
Unknown
Launch site
Taiyaun Space Center, China (TSC)
Object type
Payload
Rocket body
Debris
Shape & HBR
Unknown shape, 0.1 m
Radar Cross Section
Medium (>0.1 m² and <1 m²)

Expand to show TLE details & history
Last TLE update: 1 day ago

TLE from 1 day ago
0 CZ-4 DEB
1 26162U 99057AY  25349.72592187  .00001737  00000-0  69507-3 0  9999
2 26162  99.1010  44.6461 0253813 136.5525 225.5958 14.13637401316537
Epoch: 2025-12-15T17:25Z
TLE epoch observation values (Epoch: 2025-12-15T17:25:19.649Z)
Latitude
-0.00003°
Longitude
58.69388°
Altitude
980.503 km
Speed
7.295 km/s
True Right ascension
02h 58m 35s
True Declination
0° 00' 00"
Sunlit
Object was in full shadow at epoch
Visualization orbit readout
Latitude
Unknown
Longitude
Unknown
Altitude
Unknown
Speed
Unknown
Apparent Right ascension
Unknown
Apparent Declination
Unknown
Sunlit
N/A
Visualization observer readout
Local Sidereal Time
15:50:03
Azimuth
Unknown
Elevation
Unknown
Doppler factor
Unknown
Orbital elements
Apogee altitude
1,027.445 km
Perigee altitude
660.824 km
Semi-major axis
7,222.272 km
Eccentricity
0.02538
Inclination
99.101°
RAAN
44.6461°
Arg. of periapsis
136.5525°
True anomaly
223.56351°
Mean anomaly
225.5958°
Eccentric anomaly
224.57515°
Mean motion
3.53616 °/min
Orbital period
101.81 mins
BSTAR
0.00069507
Loading maneuver chart data...
Computing Atmospheric mass density...

Documentation

Showing up to 5 results
|